Location: Prairie Dale
(45.6972°N, 104.5033°W)
Time: 03:35:41
(UTC+00:00)

STARS - Pass Details

Date: 06 July 2022
Orbit: 620 x 637 km, 98.2° (Epoch: 13 August)

Event Time Altitude Azimuth Distance (km) Brightness Sun altitude
Rises 04:50:15 0° 25° (NNE) 2,927 ? -15.3°
Reaches altitude 10° 04:52:50 10° 40° (NE) 2,011 ? -15.5°
Maximum altitude 04:56:22 24° 94° (E) 1,311 ? -15.8°
Enters shadow 04:57:17 22° 113° (ESE) 1,367 ? -15.9°
